Regional Weather Roundup
Issued by NWS

Home | Current Version | Previous Version | Graphics & Text | Print | Product List | Glossary On
Versions: 1 2 3 4 5 6 7 8 9 10 11 12 13 14 15 16 17 18 19 20 21 22 23 24 25 26 27 28 29 30 31 32 33 34 35 36 37 38 39 40 41 42 43 44 45 46 47 48 49 50
000
ASUS43 KFSD 042102
RWRSD

WEATHER ROUNDUP FOR SOUTH DAKOTA
NATIONAL WEATHER SERVICE SIOUX FALLS SD
400 PM CDT MON MAY 04 2015

NOTE: "FAIR" INDICATES FEW OR NO CLOUDS BELOW 12,000 FEET WITH NO
SIGNIFICANT WEATHER AND/OR OBSTRUCTIONS TO VISIBILITY.


SDZ001>005-009-010-012>017-042200-
NORTHWEST AND NORTH CENTRAL SOUTH DAKOTA

CITY           SKY/WX    TMP DP  RH WIND       PRES   REMARKS
BUFFALO          N/A     51  36  56 SE28G33   30.07F
FAITH            N/A     46  40  79 S8        30.20F
MOBRIDGE       CLOUDY    66  24  20 SW8       30.17F
$$

SDZ012>016-024>037-041>051-057-063-072>074-042200-
SOUTHWEST AND SOUTH CENTRAL SOUTH DAKOTA

CITY           SKY/WX    TMP DP  RH WIND       PRES   REMARKS
RAPID CTY ARPT LGT RAIN  53  38  56 SE7       30.17F
PIERRE         CLOUDY    67  22  18 E10       30.17F
CUSTER         CLOUDY    43  31  62 E6        30.17F
ELLSWORTH AFB  CLOUDY    54  36  49 S12       30.15F
PHILIP         CLOUDY    62  27  26 E12       30.17F
PINE RIDGE     CLOUDY    54  33  45 E12       30.16F
WINNER         CLOUDY    69  21  16 NE14G22   30.14F
$$

SDZ004>011-016>023-039-040-042200-
NORTHEAST SOUTH DAKOTA

CITY           SKY/WX    TMP DP  RH WIND       PRES   REMARKS
ABERDEEN       PTSUNNY   70  23  17 NE10G23   30.17F
WATERTOWN      PTSUNNY   69  25  19 E9        30.17F
BROOKINGS      PTSUNNY   70  27  19 NE9G18    30.16F
SISSETON         N/A     69  21  16 CALM      30.17F
$$

SDZ017-020-022-023-036>040-048>070-042200-
SOUTHEAST SOUTH DAKOTA

CITY           SKY/WX    TMP DP  RH WIND       PRES   REMARKS
SIOUX FALLS    CLOUDY    71  29  21 SE12      30.13F
HURON          PTSUNNY   71  24  17 E10       30.14F
MITCHELL       PTSUNNY   74  25  16 E13       30.13F
YANKTON        PTSUNNY   73  34  23 E15G21    30.10F
$$

ABBREVIATIONS USED IN REMARKS
   TC - TEMPERATURE IN CELSIUS
  WCI - WIND CHILL INDEX
   HX - HEAT INDEX
  VSB - VISIBILITY




USA.gov is the U.S. government's official web portal to all federal, state and local government web resources and services.